�N����,����,�~����,�C��,���x,�C��,����,���ϕ���,�ő�u�ԕ���,�ő厞����,���˗�,�I�_���x,�n�����x,�ő啗���N��,DTYPE
"17/12/22","00:10",0.0,-0.7,98.2,1019.7,302.7,1.3,1.8,290.3,0.00,-0.9,4.1,"00:04:34",1
"17/12/22","00:20",0.0,-0.8,96.3,1019.2,315.2,0.6,2.0,335.1,0.00,-1.3,3.9,"00:10:40",1
"17/12/22","00:30",0.0,-1.3,98.1,1019.7,281.6,0.8,1.9,309.0,0.00,-1.5,3.9,"00:29:46",1
"17/12/22","00:40",0.0,-1.1,96.9,1019.4,315.6,1.8,2.2,309.7,0.00,-1.5,3.8,"00:33:24",1
"17/12/22","00:50",0.0,-1.5,98.1,1019.2,317.9,2.2,3.2,323.8,0.00,-1.7,3.9,"00:41:50",1
"17/12/22","01:00",0.0,-1.3,97.6,1019.4,314.5,1.1,2.4,316.8,0.00,-1.6,3.9,"00:52:30",1
"17/12/22","01:10",0.0,-1.7,98.3,1019.0,300.9,1.7,2.4,301.7,0.00,-1.9,3.8,"01:04:22",1
"17/12/22","01:20",0.0,-1.6,97.9,1019.0,315.0,2.5,2.8,317.6,0.00,-1.8,3.5,"01:14:00",1
"17/12/22","01:30",0.0,-1.8,98.4,1019.2,309.7,2.0,2.5,315.9,0.00,-2.0,3.8,"01:27:28",1
"17/12/22","01:40",0.0,-1.8,97.9,1019.2,298.3,1.6,2.9,316.4,0.00,-2.0,3.7,"01:39:22",1
"17/12/22","01:50",0.0,-2.0,98.3,1019.2,322.1,3.2,3.7,325.1,0.00,-2.2,3.5,"01:47:48",1
"17/12/22","02:00",0.0,-1.7,98.4,1019.0,313.3,2.5,3.5,333.6,0.00,-1.9,3.5,"01:52:44",1
"17/12/22","02:10",0.0,-1.4,98.5,1019.2,298.3,2.1,2.5,306.2,0.00,-1.6,3.6,"02:00:52",1
"17/12/22","02:20",0.0,-1.1,98.1,1019.7,293.4,1.8,2.5,309.1,0.00,-1.3,3.7,"02:19:54",1
"17/12/22","02:30",0.0,-1.5,97.2,1019.2,322.5,2.5,3.4,322.1,0.00,-1.8,3.3,"02:29:36",1
"17/12/22","02:40",0.0,-1.9,99.5,1019.4,315.6,2.3,3.3,322.9,0.00,-1.9,3.4,"02:34:32",1
"17/12/22","02:50",0.0,-1.7,98.2,1019.4,310.1,1.5,2.2,316.8,0.00,-1.9,3.4,"02:41:20",1
"17/12/22","03:00",0.0,-1.9,97.9,1019.4,317.2,2.6,3.5,321.6,0.00,-2.1,3.6,"02:58:02",1
"17/12/22","03:10",0.0,-2.2,99.7,1019.4,321.5,3.1,3.7,322.7,0.00,-2.2,3.3,"03:04:32",1
"17/12/22","03:20",0.0,-2.0,98.5,1019.0,313.8,2.1,2.9,319.1,0.00,-2.2,3.6,"03:10:40",1
"17/12/22","03:30",0.0,-2.1,98.7,1019.0,308.4,2.7,3.4,318.9,0.00,-2.2,3.2,"03:27:30",1
"17/12/22","03:40",0.0,-2.1,98.8,1018.7,310.9,2.7,3.2,318.9,0.00,-2.2,3.4,"03:31:36",1
"17/12/22","03:50",0.0,-2.3,98.6,1018.7,311.2,2.8,3.3,319.3,0.00,-2.5,3.4,"03:49:16",1
"17/12/22","04:00",0.0,-2.2,99.0,1019.0,316.8,3.1,3.5,323.0,0.00,-2.3,3.2,"03:58:00",1
"17/12/22","04:10",0.0,-2.3,98.9,1019.2,302.3,2.0,2.5,317.0,0.00,-2.4,3.3,"04:00:08",1
"17/12/22","04:20",0.0,-2.4,98.6,1018.7,309.1,2.3,2.5,316.3,0.00,-2.5,3.2,"04:12:36",1
"17/12/22","04:30",0.0,-2.5,99.0,1019.0,310.8,3.0,3.4,317.0,0.00,-2.6,3.3,"04:21:52",1
"17/12/22","04:40",0.0,-2.5,99.1,1018.5,311.1,2.8,3.2,320.0,0.00,-2.6,3.1,"04:33:20",1
"17/12/22","04:50",0.0,-2.5,99.5,1018.7,302.9,2.0,3.1,317.3,0.00,-2.5,3.0,"04:46:44",1
"17/12/22","05:00",0.0,-2.5,99.5,1019.0,299.9,1.7,1.8,304.1,0.00,-2.5,3.1,"04:51:00",1
"17/12/22","05:10",0.0,-2.7,98.5,1018.7,314.5,3.2,3.4,315.4,0.00,-2.9,3.0,"05:02:50",1
"17/12/22","05:20",0.0,-2.8,99.3,1018.5,307.0,2.6,3.2,317.4,0.00,-2.9,3.1,"05:11:14",1
"17/12/22","05:30",0.0,-2.8,98.7,1018.7,299.2,1.6,3.1,313.7,0.00,-2.9,3.1,"05:20:24",1
"17/12/22","05:40",0.0,-2.8,99.6,1019.0,308.5,2.8,3.3,320.4,0.00,-2.8,3.1,"05:38:30",1
"17/12/22","05:50",0.0,-2.8,99.3,1018.7,308.1,2.7,3.1,314.9,0.00,-2.9,2.8,"05:41:04",1
"17/12/22","06:00",0.0,-2.9,99.2,1019.2,302.8,2.2,2.5,306.0,0.00,-3.0,3.0,"05:54:36",1
"17/12/22","06:10",0.0,-3.1,98.9,1019.0,299.1,1.7,2.1,299.6,0.00,-3.2,3.0,"06:02:12",1
"17/12/22","06:20",0.0,-3.1,99.0,1019.2,313.2,3.1,3.3,315.2,0.00,-3.2,2.9,"06:14:38",1
"17/12/22","06:30",0.0,-3.0,99.7,1019.2,305.9,2.6,3.1,317.7,0.00,-3.0,2.9,"06:29:04",1
"17/12/22","06:40",0.0,-2.8,99.6,1019.2,308.8,2.5,3.2,314.7,0.00,-2.8,2.9,"06:38:14",1
"17/12/22","06:50",0.0,-3.1,99.1,1019.2,303.6,2.5,3.1,321.2,0.00,-3.2,2.9,"06:40:32",1
"17/12/22","07:00",0.0,-2.9,99.8,1019.2,304.7,2.2,2.6,305.6,0.00,-2.9,2.9,"06:58:10",1
"17/12/22","07:10",0.0,-2.7,99.8,1019.4,303.2,2.2,2.7,308.2,0.00,-2.7,2.9,"07:08:40",1
"17/12/22","07:20",0.0,-3.0,99.0,1019.7,314.6,2.7,3.5,319.3,0.00,-3.1,2.7,"07:16:48",1
"17/12/22","07:30",0.0,-2.8,100.0,1019.4,302.6,2.2,3.6,322.6,0.00,-2.8,2.9,"07:20:54",1
"17/12/22","07:40",0.0,-2.3,99.9,1019.7,293.8,1.3,1.8,288.0,0.00,-2.3,2.8,"07:30:40",1
"17/12/22","07:50",0.0,-1.7,99.7,1019.9,307.2,1.8,2.9,322.9,0.00,-1.7,2.8,"07:46:40",1
"17/12/22","08:00",0.0,-1.3,100.0,1020.1,312.9,3.0,3.9,322.7,0.01,-1.3,2.7,"07:51:30",1
"17/12/22","08:10",0.0,-0.4,99.6,1020.1,306.5,1.8,2.6,313.7,0.02,-0.4,2.9,"08:00:56",1
"17/12/22","08:20",0.0,0.3,99.0,1020.4,294.2,1.3,2.1,321.5,0.04,0.2,2.9,"08:19:28",1
"17/12/22","08:30",0.0,0.5,98.8,1020.6,295.4,0.8,2.0,314.4,0.05,0.4,3.0,"08:20:08",1
"17/12/22","08:40",0.0,1.2,97.1,1020.8,300.2,0.8,1.1,311.7,0.06,0.8,2.9,"08:31:36",1
"17/12/22","08:50",0.2,1.8,94.9,1021.3,303.3,0.7,0.8,309.4,0.07,1.1,3.1,"08:46:38",1
"17/12/22","09:00",0.0,2.3,93.5,1021.5,270.9,0.8,1.2,263.2,0.09,1.4,3.1,"08:57:02",1
"17/12/22","09:10",0.0,2.9,90.8,1021.5,270.9,0.8,1.4,262.3,0.11,1.6,3.3,"09:00:20",1
"17/12/22","09:20",0.0,3.3,88.8,1021.8,255.4,0.6,1.3,253.4,0.13,1.7,3.4,"09:18:42",1
"17/12/22","09:30",0.0,3.4,87.2,1022.0,254.9,0.8,1.3,262.8,0.16,1.5,3.5,"09:21:14",1
"17/12/22","09:40",0.0,4.2,85.2,1022.0,236.8,1.0,1.7,218.8,0.19,2.0,3.6,"09:38:08",1
"17/12/22","09:50",0.0,4.7,83.0,1022.5,232.3,1.0,1.4,189.8,0.22,2.1,3.9,"09:41:58",1
"17/12/22","10:00",0.0,5.3,82.0,1022.0,250.2,1.0,1.6,245.9,0.24,2.5,4.2,"09:51:52",1
"17/12/22","10:10",0.0,5.3,78.0,1022.5,228.5,1.3,2.8,206.7,0.26,1.8,4.2,"10:08:56",1
"17/12/22","10:20",0.0,5.5,76.7,1022.3,220.9,1.5,2.8,230.9,0.27,1.8,4.4,"10:16:48",1
"17/12/22","10:30",0.0,5.9,74.3,1022.0,230.9,1.2,2.2,215.2,0.29,1.7,4.6,"10:22:40",1
"17/12/22","10:40",0.0,6.1,72.7,1022.5,220.0,1.2,2.6,215.8,0.31,1.6,4.7,"10:39:20",1
"17/12/22","10:50",0.0,6.3,70.9,1022.7,189.2,1.3,3.1,204.2,0.32,1.5,5.1,"10:47:20",1
"17/12/22","11:00",0.0,6.5,69.9,1022.5,198.7,1.1,2.7,172.2,0.33,1.4,5.2,"10:53:52",1
"17/12/22","11:10",0.0,6.9,70.6,1022.3,210.5,1.1,2.1,134.9,0.34,2.0,5.4,"11:00:32",1
"17/12/22","11:20",0.0,7.1,69.0,1022.0,194.0,1.2,2.0,185.6,0.35,1.8,5.9,"11:12:00",1
"17/12/22","11:30",0.0,7.6,66.4,1021.8,216.1,1.2,3.2,214.8,0.35,1.8,6.0,"11:25:52",1
"17/12/22","11:40",0.0,8.0,66.6,1021.5,193.6,1.2,2.4,174.5,0.36,2.2,6.3,"11:36:24",1
"17/12/22","11:50",0.0,8.3,65.5,1021.3,198.3,1.3,3.1,174.7,0.36,2.3,6.3,"11:43:20",1
"17/12/22","12:00",0.0,8.5,64.3,1021.3,184.8,1.0,2.2,202.7,0.36,2.2,6.8,"11:59:52",1
"17/12/22","12:10",0.0,8.9,63.5,1020.6,197.6,1.2,2.9,206.5,0.36,2.4,6.7,"12:08:56",1
"17/12/22","12:20",0.0,8.7,62.1,1020.4,191.2,1.5,2.8,196.2,0.36,1.9,6.9,"12:16:56",1
"17/12/22","12:30",0.0,9.0,63.0,1020.4,189.2,1.3,3.1,199.0,0.36,2.4,7.3,"12:23:04",1
"17/12/22","12:40",0.0,9.2,62.3,1020.1,172.8,1.1,2.5,196.6,0.35,2.4,7.5,"12:34:32",1
"17/12/22","12:50",0.0,9.7,60.5,1019.9,210.5,1.2,2.8,109.0,0.35,2.5,7.6,"12:49:12",1
"17/12/22","13:00",0.0,10.0,60.7,1019.4,159.4,1.0,2.6,123.4,0.35,2.8,7.9,"12:56:16",1
"17/12/22","13:10",0.0,10.4,61.4,1019.7,128.9,1.5,3.1,201.0,0.34,3.3,7.9,"13:09:36",1
"17/12/22","13:20",0.0,10.6,59.7,1019.0,137.3,1.2,2.8,131.6,0.30,3.1,8.0,"13:10:56",1
"17/12/22","13:30",0.0,10.7,58.3,1019.0,147.4,1.2,3.3,129.0,0.28,2.9,8.2,"13:25:52",1
"17/12/22","13:40",0.0,10.0,57.7,1018.7,231.4,1.3,2.6,233.4,0.10,2.1,8.0,"13:34:32",1
"17/12/22","13:50",0.0,9.8,57.6,1018.5,276.4,1.0,2.0,252.6,0.09,1.9,8.0,"13:40:24",1
"17/12/22","14:00",0.0,10.1,58.1,1018.5,255.2,1.1,2.1,249.8,0.14,2.3,8.1,"13:53:28",1
"17/12/22","14:10",0.0,10.9,55.7,1018.7,226.8,0.6,1.4,234.9,0.21,2.4,8.2,"14:00:40",1
"17/12/22","14:20",0.0,11.2,53.6,1018.2,188.7,0.8,1.8,119.4,0.23,2.2,8.5,"14:16:08",1
"17/12/22","14:30",0.0,11.0,53.3,1018.2,167.2,1.2,2.2,115.1,0.22,1.9,8.4,"14:26:24",1
"17/12/22","14:40",0.0,11.8,51.8,1018.2,169.9,0.8,2.0,127.8,0.20,2.3,8.6,"14:31:52",1
"17/12/22","14:50",0.0,11.2,52.6,1018.5,219.0,1.5,4.7,233.4,0.19,1.9,8.4,"14:43:20",1
"17/12/22","15:00",0.0,11.3,53.5,1017.8,217.3,1.5,3.6,200.0,0.17,2.2,8.3,"14:59:20",1
"17/12/22","15:10",0.0,10.9,55.8,1018.0,210.8,2.3,4.5,226.7,0.13,2.5,8.6,"15:03:20",1
"17/12/22","15:20",0.0,10.7,56.3,1018.2,206.2,2.3,4.0,204.7,0.11,2.4,8.3,"15:11:52",1
"17/12/22","15:30",0.0,10.4,57.0,1018.2,210.9,2.2,4.4,221.0,0.08,2.3,8.2,"15:25:44",1
"17/12/22","15:40",0.0,10.4,58.1,1018.2,212.1,1.6,2.8,220.7,0.06,2.6,8.3,"15:38:16",1
"17/12/22","15:50",0.0,10.2,58.5,1018.2,230.6,1.6,3.2,202.5,0.05,2.5,8.2,"15:42:32",1
"17/12/22","16:00",0.0,10.2,59.2,1018.0,263.3,1.3,2.1,246.8,0.03,2.6,8.1,"15:57:04",1
"17/12/22","16:10",0.0,9.9,59.8,1018.0,243.9,1.1,2.2,191.5,0.02,2.5,8.3,"16:00:40",1
"17/12/22","16:20",0.0,9.2,61.7,1018.0,258.2,1.1,2.0,270.3,0.00,2.3,8.1,"16:14:00",1
"17/12/22","16:30",0.0,8.5,63.8,1018.0,278.9,0.8,1.4,313.6,0.00,2.1,7.9,"16:24:16",1
"17/12/22","16:40",0.0,7.8,66.8,1017.8,292.1,1.0,1.4,313.8,0.00,2.1,7.9,"16:38:32",1
"17/12/22","16:50",0.0,7.3,70.0,1018.2,315.7,1.5,2.4,323.9,0.00,2.2,7.6,"16:48:08",1
"17/12/22","17:00",0.0,6.9,71.5,1018.0,317.7,1.8,2.7,321.9,0.00,2.1,7.7,"16:57:36",1
"17/12/22","17:10",0.0,6.5,74.0,1018.5,310.6,1.7,2.5,323.2,0.00,2.2,7.4,"17:01:36",1
"17/12/22","17:20",0.0,6.1,75.0,1018.5,302.7,2.0,2.2,315.4,0.00,2.0,7.3,"17:12:24",1
"17/12/22","17:30",0.0,5.6,76.9,1018.5,312.2,2.0,2.6,319.8,0.00,1.9,7.0,"17:25:44",1
"17/12/22","17:40",0.0,5.1,78.0,1018.2,297.3,1.8,2.2,270.9,0.00,1.6,7.2,"17:31:36",1
"17/12/22","17:50",0.0,4.7,81.0,1018.0,303.1,1.7,2.1,317.7,0.00,1.8,7.1,"17:46:38",1
"17/12/22","18:00",0.0,4.3,81.2,1018.0,301.4,1.7,2.5,322.5,0.00,1.4,7.0,"17:56:52",1
"17/12/22","18:10",0.0,4.3,84.3,1018.0,288.9,1.6,2.0,271.5,0.00,1.9,6.6,"18:04:08",1
"17/12/22","18:20",0.0,4.2,84.2,1018.2,299.9,1.8,3.3,311.4,0.00,1.8,6.6,"18:16:44",1
"17/12/22","18:30",0.0,4.0,85.4,1018.0,293.1,1.5,2.5,311.5,0.00,1.8,6.7,"18:25:24",1
"17/12/22","18:40",0.0,3.9,86.1,1017.8,298.6,1.5,2.2,314.1,0.00,1.8,6.4,"18:39:18",1
"17/12/22","18:50",0.0,3.6,86.1,1017.8,292.6,1.5,2.2,308.7,0.00,1.5,6.2,"18:40:08",1
"17/12/22","19:00",0.0,3.6,86.9,1018.0,320.5,1.6,2.2,317.5,0.00,1.7,6.3,"18:51:20",1
"17/12/22","19:10",0.0,3.5,88.8,1018.0,250.4,1.5,2.5,208.5,0.00,1.9,6.4,"19:08:40",1
"17/12/22","19:20",0.0,4.5,86.3,1017.8,302.4,2.5,3.3,324.1,0.00,2.5,6.2,"19:15:38",1
"17/12/22","19:30",0.0,4.4,82.8,1017.5,323.6,2.2,3.4,318.0,0.00,1.8,6.0,"19:21:36",1
"17/12/22","19:40",0.0,3.7,84.2,1017.5,267.3,1.1,2.9,332.3,0.00,1.3,5.9,"19:30:32",1
"17/12/22","19:50",0.0,3.5,86.2,1017.8,310.3,1.8,2.6,340.9,0.00,1.5,5.8,"19:48:00",1
"17/12/22","20:00",0.0,3.2,87.4,1017.5,284.8,1.6,2.8,327.9,0.00,1.4,5.8,"19:50:24",1
"17/12/22","20:10",0.0,3.1,87.8,1017.8,289.7,1.8,2.5,309.2,0.00,1.3,5.9,"20:07:12",1
"17/12/22","20:20",0.0,3.1,88.1,1018.0,312.1,2.3,4.0,330.2,0.00,1.4,5.7,"20:15:04",1
"17/12/22","20:30",0.0,2.7,88.1,1018.0,307.2,1.6,1.9,325.8,0.00,1.0,5.7,"20:24:40",1
"17/12/22","20:40",0.0,2.5,90.6,1017.8,296.9,2.0,2.7,315.4,0.00,1.2,5.5,"20:34:16",1
"17/12/22","20:50",0.0,2.2,90.4,1018.0,297.1,1.5,2.4,313.6,0.00,0.8,5.5,"20:49:36",1
"17/12/22","21:00",0.0,1.8,90.8,1018.0,289.4,1.5,2.5,315.1,0.00,0.5,5.4,"20:59:28",1
"17/12/22","21:10",0.0,1.4,91.1,1018.0,300.6,1.0,2.5,307.0,0.00,0.1,5.5,"21:00:08",1
"17/12/22","21:20",0.0,1.1,92.6,1017.8,321.5,2.3,2.8,320.6,0.00,0.1,5.2,"21:12:40",1
"17/12/22","21:30",0.0,0.8,93.7,1017.5,291.7,1.3,2.9,322.9,0.00,-0.1,5.3,"21:20:24",1
"17/12/22","21:40",0.0,0.8,95.0,1017.8,308.8,1.3,2.0,322.1,0.00,0.1,5.5,"21:30:02",1
"17/12/22","21:50",0.0,0.9,94.7,1017.5,318.6,2.0,2.6,319.9,0.00,0.2,4.9,"21:48:32",1
"17/12/22","22:00",0.0,0.7,95.7,1017.3,302.8,1.3,2.1,314.0,0.00,0.1,5.2,"21:56:48",1
"17/12/22","22:10",0.0,1.0,96.2,1017.5,290.8,1.5,2.1,311.4,0.00,0.5,4.9,"22:09:36",1
"17/12/22","22:20",0.0,0.8,94.8,1017.1,307.4,1.6,2.0,308.7,0.00,0.1,4.8,"22:12:08",1
"17/12/22","22:30",0.0,0.5,95.6,1017.5,323.6,1.8,2.1,318.7,0.00,-0.1,5.0,"22:20:40",1
"17/12/22","22:40",0.0,0.2,96.2,1017.5,318.3,1.3,2.0,323.9,0.00,-0.3,4.9,"22:30:32",1
"17/12/22","22:50",0.0,0.1,96.3,1017.3,290.2,0.6,1.3,316.8,0.00,-0.4,4.7,"22:45:20",1
"17/12/22","23:00",0.0,-0.1,96.8,1017.1,323.6,1.0,1.6,336.6,0.00,-0.5,4.8,"22:52:40",1
"17/12/22","23:10",0.0,0.0,97.9,1017.1,318.6,1.0,1.2,317.4,0.00,-0.3,4.6,"23:04:08",1
"17/12/22","23:20",0.0,-0.2,96.9,1017.3,6.6,0.8,1.7,333.8,0.00,-0.6,4.7,"23:18:40",1
"17/12/22","23:30",0.0,-0.4,97.9,1017.1,334.5,1.3,2.0,332.4,0.00,-0.7,4.6,"23:21:36",1
"17/12/22","23:40",0.0,-0.6,97.3,1016.6,300.9,0.6,1.3,334.3,0.00,-0.9,4.6,"23:31:36",1
"17/12/22","23:50",0.0,-0.5,98.7,1016.8,301.6,0.6,1.2,301.6,0.00,-0.6,4.5,"23:44:40",1
"17/12/22","24:00",0.0,-0.4,97.0,1016.8,321.0,0.6,1.7,324.4,0.00,-0.8,4.4,"23:52:00",1
